[[{"header":{"parameterUnit":"m.s-1","parameterCategory":1,"la1":30.2991,"la2":30.254,"lo1":-89.0895,"lo2":-89.0444,"dy":0.0017,"dx":0.0017,"nx":28,"ny":28,"refTime":"2025-01-07T03:00:00:Z","depth":0,"parameterNumber":2,"parameterNumberName":"U-component_of_WINDS"},"data":[0,0,0,0,0,0,0,0,0,0,0,0,0,0,0,0,0,0,0,0,0,0,0,0,0,0,0,0,0,0,0,0,0,0,0,0,0,0,0,0,0,0,0,0,0,0,0,0,0,0,0,0,0,0,0,0,0,0,-0.0444,-0.0444,0,-0.046,-0.046,-0.0461,-0.0458,-0.0457,-0.0457,-0.0457,-0.0474,-0.0475,-0.0475,0,0,0,0,0,0,0,0,0,0,0,0,0,-0.0409,-0.0409,-0.0444,-0.0444,-0.0444,-0.046,-0.046,-0.0461,-0.0458,-0.0457,-0.0457,-0.0457,-0.0474,-0.0474,-0.0475,0,0,0,0,0,0,0,0,0,0,0,0,0,-0.0425,-0.041,-0.0444,-0.0444,-0.0445,-0.046,-0.046,-0.0461,-0.0458,-0.0457,-0.0457,-0.0456,-0.0473,-0.0474,-0.0475,-0.0491,0,0,-0.0479,-0.0479,0,0,0,0,0,0,0,0,-0.0424,-0.0426,-0.0444,-0.0444,-0.0445,-0.0456,-0.0454,-0.0471,-0.0458,-0.0453,-0.0457,-0.0456,-0.0468,-0.047,-0.0474,-0.0492,-0.0492,-0.0479,-0.048,-0.048,-0.048,0,0,0,0,0,0,0,-0.0423,-0.0425,-0.045,-0.0444,-0.0445,-0.0444,-0.0446,-0.0457,-0.0463,-0.0453,-0.0453,-0.0455,-0.0468,-0.0473,-0.0474,-0.0493,-0.0479,-0.048,-0.048,-0.0481,-0.0524,-0.0524,0,0,0,0,0,0,-0.0421,-0.0424,-0.045,-0.0451,-0.0433,-0.0445,-0.0447,-0.0453,-0.0463,-0.0464,-0.0455,-0.0455,-0.0471,-0.0473,-0.0475,-0.0494,-0.048,-0.0481,-0.0482,-0.0523,-0.0524,-0.0524,0,0,0,0,0,0,-0.042,-0.0424,-0.0449,-0.0437,-0.0441,-0.0446,-0.0453,-0.0454,-0.0458,-0.0464,-0.0465,-0.0459,-0.0471,-0.0473,-0.0487,-0.0494,-0.0481,-0.0482,-0.0523,-0.0524,-0.0524,-0.0532,0,0,0,0,0,0,-0.0419,-0.0423,-0.0429,-0.0438,-0.0441,-0.0461,-0.0453,-0.0454,-0.046,-0.0459,-0.0468,-0.0469,-0.0471,-0.0485,-0.0488,-0.0496,-0.0483,-0.0522,-0.0523,-0.0524,-0.0531,-0.0533,-0.0534,0,0,0,0,0,-0.0418,-0.0431,-0.043,-0.0433,-0.0449,-0.0461,-0.0463,-0.0465,-0.0461,-0.0467,-0.0471,-0.0469,-0.0493,-0.0487,-0.049,-0.0498,-0.0522,-0.0523,-0.0524,-0.053,-0.0533,-0.0534,0,0,0,0,0,0,-0.0424,-0.0432,-0.0431,-0.0446,-0.0453,-0.0461,-0.0469,-0.0468,-0.0476,-0.0475,-0.0477,-0.0479,-0.0493,-0.0496,-0.0489,-0.0513,-0.0507,-0.0508,-0.051,-0.0513,-0.0514,-0.0513,-0.0484,0,0,0,0,0,-0.0427,-0.0436,-0.0443,-0.0456,-0.0459,-0.0463,-0.0469,-0.047,-0.0477,-0.048,-0.0485,-0.0491,-0.0501,-0.0507,-0.0515,-0.0531,-0.0533,-0.0538,-0.054,-0.0541,-0.0543,-0.0552,-0.0554,-0.0528,-0.0528,-0.0528,0,0,-0.0433,-0.0439,-0.0445,-0.0457,-0.0463,-0.0472,-0.0466,-0.0476,-0.0484,-0.0481,-0.0495,-0.0498,-0.0506,-0.0521,-0.0527,-0.0524,-0.055,-0.0543,-0.0544,-0.0545,-0.0553,-0.0556,-0.0558,-0.0529,-0.0529,-0.0529,0,0,-0.045,-0.0455,-0.0467,-0.0472,-0.048,-0.0482,-0.0485,-0.0493,-0.0495,-0.0508,-0.0507,-0.0515,-0.0531,-0.0536,-0.0541,-0.0559,-0.0558,-0.0562,-0.0571,-0.058,-0.0582,-0.0583,-0.059,-0.0593,-0.0564,-0.0564,-0.0564,0,-0.0457,-0.0472,-0.0473,-0.0484,-0.0489,-0.0487,-0.0499,-0.0504,-0.0514,-0.0518,-0.0514,-0.0534,-0.0539,-0.0555,-0.0559,-0.0563,-0.0566,-0.0562,-0.0581,-0.0583,-0.0585,-0.0591,-0.0594,-0.0564,-0.0564,-0.0564,-0.0564,0,-0.048,-0.049,-0.0499,-0.0509,-0.0515,-0.0526,-0.0529,-0.0535,-0.0535,-0.0538,-0.0551,-0.0557,-0.0567,-0.057,-0.057,-0.0586,-0.0584,-0.0581,-0.0574,-0.0588,-0.0594,-0.0597,-0.0565,-0.0565,-0.0564,-0.0564,0,0,-0.0502,-0.0512,-0.0515,-0.052,-0.0528,-0.0536,-0.0546,-0.0556,-0.0562,-0.0568,-0.0578,-0.0591,-0.0587,-0.0593,-0.0593,-0.0601,-0.0615,-0.0596,-0.0596,-0.06,-0.0633,-0.0637,-0.064,-0.0614,-0.0614,-0.0614,-0.0633,0,-0.052,-0.054,-0.054,-0.0558,-0.0568,-0.0565,-0.0574,-0.058,-0.0583,-0.0591,-0.0594,-0.0603,-0.0598,-0.0601,-0.0608,-0.0612,-0.0622,-0.061,-0.0623,-0.0623,-0.0622,-0.0643,-0.0646,-0.0664,-0.0635,-0.0636,-0.0636,0,-0.0544,-0.0552,-0.0571,-0.0577,-0.0581,-0.059,-0.0599,-0.0606,-0.0613,-0.0614,-0.062,-0.0619,-0.063,-0.0622,-0.0637,-0.063,-0.0634,-0.0637,-0.0637,-0.0639,-0.0631,-0.0646,-0.0669,-0.0672,-0.064,-0.064,-0.0639,0,-0.0559,-0.0574,-0.0587,-0.0591,-0.0599,-0.0605,-0.0609,-0.0615,-0.062,-0.0628,-0.0631,-0.064,-0.0645,-0.0651,-0.0652,-0.0647,-0.0668,-0.066,-0.0669,-0.0669,-0.0675,-0.0675,-0.07,-0.0676,-0.0676,-0.0676,-0.0676,0,-0.058,-0.0591,-0.0594,-0.0602,-0.0615,-0.0615,-0.0628,-0.0631,-0.0636,-0.0645,-0.0643,-0.0651,-0.0652,-0.066,-0.0661,-0.0674,-0.0676,-0.0677,-0.0678,-0.0678,-0.0678,-0.0682,-0.0681,-0.0677,-0.0677,-0.0677,-0.0677,0,-0.0599,-0.0601,-0.0615,-0.0622,-0.0623,-0.0633,-0.0638,-0.0646,-0.0647,-0.0658,-0.0661,-0.0664,-0.0674,-0.0675,-0.0687,-0.0687,-0.0702,-0.0701,-0.07,-0.0701,-0.071,-0.071,-0.074,-0.0744,-0.0717,-0.0717,-0.0717,0,-0.0613,-0.0622,-0.0629,-0.0634,-0.0638,-0.0647,-0.0653,-0.0653,-0.0659,-0.0667,-0.0674,-0.0683,-0.0691,-0.0706,-0.0709,-0.0718,-0.0717,-0.0727,-0.0719,-0.0719,-0.0718,-0.0718,-0.0719,-0.0729,-0.0729,-0.073,-0.073,0,-0.0637,-0.0637,-0.0646,-0.0654,-0.0661,-0.0668,-0.0674,-0.0679,-0.068,-0.0687,-0.0696,-0.0702,-0.0714,-0.0723,-0.0731,-0.0735,-0.0733,-0.0732,-0.0735,-0.0736,-0.0736,-0.0737,-0.0706,-0.0732,-0.0732,-0.0732,-0.0731,-0.0731,-0.0654,-0.0662,-0.0669,-0.0678,-0.0682,-0.0688,-0.0696,-0.0699,-0.0707,-0.0716,-0.0716,-0.0726,-0.0732,-0.0743,-0.0747,-0.0755,-0.0752,-0.0756,-0.0757,-0.0758,-0.076,-0.0733,-0.0757,-0.0757,-0.0757,-0.0757,-0.0757,0,-0.0679,-0.0683,-0.0691,-0.07,-0.0707,-0.0704,-0.0711,-0.0717,-0.0727,-0.0732,-0.074,-0.0751,-0.076,-0.0763,-0.0772,-0.0778,-0.0777,-0.078,-0.078,-0.0781,-0.0762,-0.0759,-0.078,-0.078,-0.078,-0.078,-0.078,-0.078,-0.0693,-0.0706,-0.0707,-0.0723,-0.0726,-0.0737,-0.0741,-0.0746,-0.0751,-0.0763,-0.0771,-0.0773,-0.0777,-0.0786,-0.0794,-0.0795,-0.0798,-0.0802,-0.0803,-0.0785,-0.0782,-0.078,-0.0777,-0.0803,-0.0803,-0.0821,-0.0822,-0.0822]},{"header":{"parameterUnit":"m.s-1","parameterCategory":1,"la1":30.2991,"la2":30.254,"lo1":-89.0895,"lo2":-89.0444,"dy":0.0017,"dx":0.0017,"nx":28,"ny":28,"refTime":"2025-01-07T03:00:00:Z","depth":0,"parameterNumber":3,"parameterNumberName":"V-component_of_WINDS"},"data":[0,0,0,0,0,0,0,0,0,0,0,0,0,0,0,0,0,0,0,0,0,0,0,0,0,0,0,0,0,0,0,0,0,0,0,0,0,0,0,0,0,0,0,0,0,0,0,0,0,0,0,0,0,0,0,0,0,0,-4.7132,-4.7132,0,-4.718,-4.718,-4.7181,-4.7159,-4.7157,-4.7156,-4.7155,-4.7199,-4.7202,-4.7204,0,0,0,0,0,0,0,0,0,0,0,0,0,-4.7017,-4.7019,-4.7132,-4.7132,-4.7133,-4.718,-4.718,-4.7181,-4.7159,-4.7157,-4.7156,-4.7154,-4.7199,-4.7201,-4.7204,0,0,0,0,0,0,0,0,0,0,0,0,0,-4.7066,-4.702,-4.7132,-4.7128,-4.7128,-4.718,-4.718,-4.7181,-4.7159,-4.7157,-4.7155,-4.7154,-4.7198,-4.7201,-4.7205,-4.7262,0,0,-4.7215,-4.7217,0,0,0,0,0,0,0,0,-4.7063,-4.707,-4.7128,-4.7128,-4.7128,-4.7161,-4.7156,-4.7208,-4.716,-4.7147,-4.7155,-4.7153,-4.7188,-4.7192,-4.7205,-4.7264,-4.7266,-4.7215,-4.7217,-4.7219,-4.722,0,0,0,0,0,0,0,-4.706,-4.7068,-4.7151,-4.7128,-4.7129,-4.7122,-4.7127,-4.7166,-4.7177,-4.7148,-4.7147,-4.7153,-4.7188,-4.7202,-4.7206,-4.7266,-4.7215,-4.7218,-4.722,-4.7222,-4.7376,-4.7378,0,0,0,0,0,0,-4.7057,-4.7065,-4.7149,-4.7152,-4.7091,-4.7126,-4.7131,-4.7152,-4.7176,-4.7178,-4.7154,-4.7152,-4.7197,-4.7202,-4.7207,-4.7277,-4.7219,-4.7222,-4.7224,-4.7374,-4.7376,-4.7378,0,0,0,0,0,0,-4.7055,-4.7065,-4.7147,-4.7108,-4.7118,-4.713,-4.7154,-4.7154,-4.7168,-4.7181,-4.7182,-4.7167,-4.7195,-4.7202,-4.7249,-4.7278,-4.7224,-4.7227,-4.7371,-4.7374,-4.7377,-4.7416,0,0,0,0,0,0,-4.7052,-4.7064,-4.7087,-4.7109,-4.7121,-4.7189,-4.7155,-4.7157,-4.7175,-4.7172,-4.7193,-4.7195,-4.7195,-4.7244,-4.7252,-4.7282,-4.723,-4.7369,-4.7373,-4.7376,-4.7412,-4.742,-4.7427,0,0,0,0,0,-4.7048,-4.7094,-4.7088,-4.7098,-4.7149,-4.7191,-4.7197,-4.7197,-4.7177,-4.72,-4.7208,-4.7194,-4.7273,-4.7249,-4.7258,-4.7289,-4.7367,-4.7372,-4.7376,-4.7409,-4.7418,-4.7426,0,0,0,0,0,0,-4.7073,-4.7097,-4.709,-4.7146,-4.7167,-4.7187,-4.7215,-4.7207,-4.7233,-4.7229,-4.7226,-4.7231,-4.728,-4.7289,-4.7261,-4.7346,-4.7317,-4.7324,-4.7339,-4.7348,-4.7355,-4.7352,-4.7232,0,0,0,0,0,-4.7085,-4.7119,-4.7137,-4.7184,-4.7195,-4.7204,-4.7222,-4.722,-4.7241,-4.7249,-4.7261,-4.7281,-4.731,-4.7329,-4.7357,-4.7413,-4.7418,-4.7439,-4.7446,-4.7452,-4.7458,-4.749,-4.75,-4.7393,-4.7393,-4.7393,0,0,-4.711,-4.7128,-4.7148,-4.719,-4.7206,-4.724,-4.7211,-4.7247,-4.7272,-4.7254,-4.73,-4.7309,-4.7331,-4.7383,-4.7406,-4.7392,-4.7488,-4.7458,-4.7463,-4.7465,-4.7495,-4.7505,-4.7514,-4.7396,-4.7396,-4.7395,0,0,-4.7174,-4.719,-4.7232,-4.725,-4.7275,-4.7281,-4.7291,-4.7313,-4.7319,-4.7365,-4.7353,-4.7381,-4.7432,-4.7448,-4.7463,-4.7535,-4.7523,-4.7544,-4.7582,-4.7613,-4.7621,-4.7628,-4.7655,-4.7664,-4.7549,-4.7549,-4.755,0,-4.7201,-4.7253,-4.7254,-4.7293,-4.7312,-4.7299,-4.7341,-4.7357,-4.7389,-4.7402,-4.7386,-4.7451,-4.7464,-4.7521,-4.7538,-4.755,-4.7562,-4.7541,-4.762,-4.7627,-4.7634,-4.766,-4.767,-4.7552,-4.7552,-4.7551,-4.7551,0,-4.7287,-4.7323,-4.7353,-4.7388,-4.741,-4.745,-4.7456,-4.7478,-4.7475,-4.7482,-4.7529,-4.7545,-4.7577,-4.759,-4.7586,-4.7646,-4.7637,-4.762,-4.7591,-4.7647,-4.7671,-4.768,-4.7555,-4.7554,-4.7554,-4.7553,0,0,-4.7367,-4.7403,-4.7414,-4.743,-4.7458,-4.7486,-4.7525,-4.7558,-4.7577,-4.76,-4.7633,-4.7677,-4.7662,-4.7679,-4.7677,-4.7704,-4.7762,-4.7685,-4.7685,-4.7699,-4.783,-4.7843,-4.7854,-4.7754,-4.7756,-4.7757,-4.7829,0,-4.7433,-4.7505,-4.7507,-4.7572,-4.7606,-4.7595,-4.7629,-4.7649,-4.7657,-4.7686,-4.7693,-4.7725,-4.7703,-4.7714,-4.774,-4.7749,-4.7788,-4.7744,-4.7784,-4.7786,-4.778,-4.7867,-4.788,-4.7947,-4.7838,-4.7839,-4.7841,0,-4.752,-4.7549,-4.7618,-4.7643,-4.7657,-4.7688,-4.7719,-4.7747,-4.7769,-4.7773,-4.7793,-4.7788,-4.7827,-4.7797,-4.7851,-4.7821,-4.7838,-4.7845,-4.7847,-4.7851,-4.7817,-4.7874,-4.7968,-4.7978,-4.7855,-4.7854,-4.7853,0,-4.7573,-4.7629,-4.7678,-4.7691,-4.7721,-4.7744,-4.7757,-4.7778,-4.7798,-4.7824,-4.7838,-4.7867,-4.7884,-4.7907,-4.7909,-4.7886,-4.7964,-4.7933,-4.7968,-4.7968,-4.7986,-4.7985,-4.8084,-4.7995,-4.7995,-4.7995,-4.7994,0,-4.7648,-4.7691,-4.7702,-4.7732,-4.778,-4.7782,-4.7829,-4.784,-4.7859,-4.789,-4.7882,-4.7911,-4.7912,-4.7942,-4.7943,-4.7989,-4.7996,-4.8,-4.8,-4.8001,-4.8001,-4.8012,-4.8008,-4.7997,-4.7997,-4.7996,-4.7996,0,-4.7715,-4.7725,-4.7778,-4.7803,-4.781,-4.7844,-4.7864,-4.7893,-4.79,-4.794,-4.7949,-4.7961,-4.7995,-4.8,-4.804,-4.8041,-4.8096,-4.8091,-4.8089,-4.8089,-4.8124,-4.8121,-4.8235,-4.8251,-4.815,-4.8151,-4.8152,0,-4.7763,-4.7796,-4.7825,-4.7847,-4.7862,-4.7896,-4.7918,-4.7921,-4.7943,-4.7973,-4.7997,-4.8032,-4.8059,-4.8115,-4.8126,-4.8157,-4.8153,-4.8191,-4.8157,-4.8158,-4.8154,-4.8153,-4.8157,-4.8197,-4.8198,-4.8199,-4.82,0,-4.7846,-4.785,-4.7882,-4.7916,-4.7943,-4.7969,-4.7994,-4.8011,-4.8018,-4.8043,-4.808,-4.8102,-4.8144,-4.8178,-4.8209,-4.822,-4.8212,-4.821,-4.822,-4.8222,-4.8221,-4.8223,-4.8108,-4.8208,-4.8207,-4.8206,-4.8206,-4.8206,-4.7906,-4.7935,-4.7962,-4.7998,-4.8018,-4.8041,-4.807,-4.8082,-4.8114,-4.815,-4.8149,-4.819,-4.8212,-4.8253,-4.8267,-4.8298,-4.8286,-4.83,-4.8303,-4.8307,-4.8311,-4.8215,-4.8303,-4.8303,-4.8303,-4.8303,-4.8303,0,-4.799,-4.8007,-4.804,-4.8077,-4.8106,-4.8096,-4.8124,-4.8148,-4.8184,-4.8207,-4.8236,-4.8278,-4.8312,-4.8326,-4.8359,-4.8381,-4.8377,-4.8389,-4.8388,-4.8391,-4.832,-4.8309,-4.8392,-4.8391,-4.8391,-4.8391,-4.8391,-4.8391,-4.8037,-4.8088,-4.8094,-4.8154,-4.817,-4.8212,-4.8228,-4.825,-4.8269,-4.8318,-4.8346,-4.8356,-4.8375,-4.841,-4.844,-4.8443,-4.8456,-4.847,-4.8471,-4.8405,-4.8396,-4.8387,-4.8377,-4.8473,-4.8473,-4.854,-4.8541,-4.8541]}]]